EJU1KP EGKK-EDDH

Flight info

Callsign EJU1KP
Flight time 1h 12m
Altitude 37000
Route FRANE M604 PAAVO Q295 SOMVA DCT MAVAS DCT PARYD DCT GASTU DCT OSTOR T904 RIBSO RIBSO7A
Aircraft A320/M-SDE3FGHIRWY/LB1

Departure

Time 2026-05-06 17:53
Airport London Gatwick Airport (EGKK)

Arrival

Time 2026-05-06 19:06
Airport Hamburg Helmut Schmidt Airport (EDDH)
Time Latitude Longitude Altitude Speed Heading
2026-05-06 16:57 51.15637 -0.17848 204 ft 0 kts 167°
2026-05-06 17:30 51.15640 -0.17849 204 ft 3 kts 167°
2026-05-06 17:30 51.15665 -0.17858 214 ft 4 kts 167°
2026-05-06 17:31 51.15690 -0.17866 204 ft 2 kts 167°
2026-05-06 17:31 51.15708 -0.17868 204 ft 4 kts 230°
2026-05-06 17:31 51.15716 -0.17834 204 ft 4 kts 257°
2026-05-06 17:31 51.15718 -0.17821 204 ft 0 kts 257°
2026-05-06 17:35 51.15718 -0.17822 204 ft 1 kts 257°
2026-05-06 17:36 51.15710 -0.17885 204 ft 5 kts 258°
2026-05-06 17:36 51.15699 -0.17964 211 ft 8 kts 257°
2026-05-06 17:36 51.15685 -0.18060 204 ft 10 kts 257°
2026-05-06 17:36 51.15669 -0.18167 214 ft 10 kts 257°
2026-05-06 17:37 51.15624 -0.18233 204 ft 9 kts 178°
2026-05-06 17:37 51.15562 -0.18215 204 ft 9 kts 167°
2026-05-06 17:37 51.15503 -0.18194 213 ft 9 kts 167°
2026-05-06 17:37 51.15429 -0.18159 204 ft 15 kts 165°
2026-05-06 17:38 51.15324 -0.18122 210 ft 16 kts 168°
2026-05-06 17:38 51.15228 -0.18102 212 ft 11 kts 196°
2026-05-06 17:38 51.15197 -0.18198 209 ft 10 kts 256°
2026-05-06 17:38 51.15185 -0.18324 212 ft 13 kts 262°
2026-05-06 17:39 51.15164 -0.18479 203 ft 15 kts 256°
2026-05-06 17:39 51.15140 -0.18645 212 ft 16 kts 258°
2026-05-06 17:39 51.15117 -0.18826 206 ft 17 kts 257°
2026-05-06 17:39 51.15091 -0.19015 204 ft 18 kts 258°
2026-05-06 17:40 51.15064 -0.19210 212 ft 18 kts 258°
2026-05-06 17:40 51.15038 -0.19413 209 ft 19 kts 257°
2026-05-06 17:40 51.15007 -0.19622 208 ft 20 kts 258°
2026-05-06 17:40 51.14978 -0.19836 215 ft 20 kts 259°
2026-05-06 17:41 51.14949 -0.20053 203 ft 19 kts 254°
2026-05-06 17:41 51.14917 -0.20265 203 ft 20 kts 259°
2026-05-06 17:41 51.14889 -0.20479 203 ft 20 kts 258°
2026-05-06 17:41 51.14860 -0.20689 206 ft 19 kts 257°
2026-05-06 17:42 51.14833 -0.20892 204 ft 18 kts 258°
2026-05-06 17:42 51.14807 -0.21080 210 ft 17 kts 257°
2026-05-06 17:42 51.14776 -0.21240 210 ft 14 kts 256°
2026-05-06 17:42 51.14749 -0.21380 204 ft 11 kts 233°
2026-05-06 17:43 51.14729 -0.21399 204 ft 5 kts 198°
2026-05-06 17:43 51.14700 -0.21397 204 ft 0 kts 170°
2026-05-06 17:44 51.14685 -0.21389 204 ft 0 kts 157°
2026-05-06 17:44 51.14684 -0.21389 204 ft 1 kts 157°
2026-05-06 17:44 51.14671 -0.21374 204 ft 3 kts 139°
2026-05-06 17:44 51.14671 -0.21373 204 ft 0 kts 139°
2026-05-06 17:47 51.14651 -0.21347 204 ft 6 kts 145°
2026-05-06 17:47 51.14643 -0.21340 204 ft 0 kts 154°
2026-05-06 17:51 51.14641 -0.21338 204 ft 2 kts 154°
2026-05-06 17:51 51.14584 -0.21312 203 ft 10 kts 162°
2026-05-06 17:51 51.14531 -0.21245 215 ft 11 kts 123°
2026-05-06 17:52 51.14523 -0.21139 203 ft 0 kts 79°
2026-05-06 17:52 51.14548 -0.20949 204 ft 52 kts 77°
2026-05-06 17:53 51.14674 -0.20054 204 ft 113 kts 78°
2026-05-06 17:53 51.14882 -0.18558 208 ft 161 kts 78°
2026-05-06 17:53 51.15110 -0.16811 772 ft 160 kts 81°
2026-05-06 17:53 51.15343 -0.15056 1441 ft 163 kts 73°
2026-05-06 17:54 51.15603 -0.13204 1796 ft 182 kts 73°
2026-05-06 17:54 51.15900 -0.11123 2084 ft 204 kts 75°
2026-05-06 17:54 51.16229 -0.08784 2386 ft 229 kts 75°
2026-05-06 17:54 51.16592 -0.06179 2857 ft 250 kts 75°
2026-05-06 17:55 51.16897 -0.03412 3648 ft 259 kts 86°
2026-05-06 17:55 51.16857 -0.00516 4506 ft 265 kts 90°
2026-05-06 17:55 51.16800 0.02459 4899 ft 269 kts 91°
2026-05-06 17:55 51.16744 0.05441 4988 ft 269 kts 91°
2026-05-06 17:56 51.16688 0.08420 4998 ft 269 kts 91°
2026-05-06 17:56 51.16628 0.11399 5000 ft 269 kts 91°
2026-05-06 17:56 51.16570 0.14379 5001 ft 268 kts 91°
2026-05-06 17:56 51.16528 0.17354 5003 ft 269 kts 90°
2026-05-06 17:57 51.16527 0.20326 5004 ft 269 kts 89°
2026-05-06 17:57 51.16540 0.23308 5004 ft 269 kts 89°
2026-05-06 17:57 51.16556 0.26286 5006 ft 269 kts 89°
2026-05-06 17:57 51.16570 0.29263 5008 ft 269 kts 89°
2026-05-06 17:58 51.16579 0.32243 5008 ft 269 kts 89°
2026-05-06 17:58 51.16584 0.34260 5009 ft 269 kts 89°
2026-05-06 17:58 51.16588 0.37234 5009 ft 269 kts 89°
2026-05-06 17:58 51.16590 0.40218 5009 ft 269 kts 89°
2026-05-06 17:59 51.16592 0.43197 5008 ft 269 kts 89°
2026-05-06 17:59 51.16595 0.46185 5009 ft 269 kts 89°
2026-05-06 17:59 51.16613 0.49123 5024 ft 269 kts 84°
2026-05-06 17:59 51.17102 0.52012 5013 ft 268 kts 61°
2026-05-06 18:00 51.18235 0.54324 4999 ft 265 kts 39°
2026-05-06 18:00 51.19829 0.55756 5007 ft 264 kts 16°
2026-05-06 18:00 51.21609 0.56446 5008 ft 263 kts 12°
2026-05-06 18:00 51.23396 0.57101 5013 ft 264 kts 12°
2026-05-06 18:01 51.25183 0.57764 5008 ft 264 kts 12°
2026-05-06 18:01 51.26948 0.58425 5003 ft 264 kts 12°
2026-05-06 18:01 51.28748 0.59101 5585 ft 267 kts 13°
2026-05-06 18:01 51.30564 0.59776 6519 ft 269 kts 13°
2026-05-06 18:02 51.32391 0.60457 7367 ft 270 kts 12°
2026-05-06 18:02 51.34231 0.61149 8214 ft 274 kts 11°
2026-05-06 18:02 51.36100 0.61855 8989 ft 279 kts 12°
2026-05-06 18:02 51.38002 0.62569 9784 ft 283 kts 11°
2026-05-06 18:03 51.39945 0.63297 10357 ft 295 kts 11°
2026-05-06 18:03 51.42026 0.64077 10579 ft 318 kts 11°
2026-05-06 18:03 51.44225 0.64906 11083 ft 329 kts 11°
2026-05-06 18:03 51.46470 0.65760 11785 ft 333 kts 11°
2026-05-06 18:04 51.48739 0.66626 12518 ft 337 kts 12°
2026-05-06 18:04 51.51026 0.67502 13265 ft 339 kts 12°
2026-05-06 18:04 51.53329 0.68383 13970 ft 342 kts 11°
2026-05-06 18:04 51.55651 0.69271 14580 ft 345 kts 11°
2026-05-06 18:05 51.57999 0.70171 15187 ft 348 kts 11°
2026-05-06 18:05 51.60368 0.71075 15794 ft 352 kts 11°
2026-05-06 18:05 51.62762 0.71987 16395 ft 355 kts 11°
2026-05-06 18:05 51.65178 0.72901 16990 ft 359 kts 11°
2026-05-06 18:06 51.67622 0.73825 17579 ft 362 kts 11°
2026-05-06 18:06 51.70088 0.74760 18156 ft 366 kts 11°
2026-05-06 18:06 51.72579 0.75710 18678 ft 369 kts 11°
2026-05-06 18:06 51.75088 0.76670 19181 ft 373 kts 11°
2026-05-06 18:07 51.77620 0.77645 19688 ft 376 kts 11°
2026-05-06 18:07 51.80154 0.78772 20181 ft 380 kts 18°
2026-05-06 18:07 51.82564 0.80592 20679 ft 386 kts 29°
2026-05-06 18:07 51.84761 0.83118 21154 ft 391 kts 39°
2026-05-06 18:08 51.86581 0.86408 21607 ft 397 kts 57°
2026-05-06 18:08 51.87644 0.90541 22040 ft 402 kts 78°
2026-05-06 18:08 51.87869 0.95061 22471 ft 406 kts 89°
2026-05-06 18:08 51.88044 0.99635 22901 ft 409 kts 83°
2026-05-06 18:09 51.88560 1.04184 23331 ft 413 kts 75°
2026-05-06 18:09 51.89492 1.08585 23721 ft 415 kts 66°
2026-05-06 18:09 51.90630 1.12896 24111 ft 417 kts 65°
2026-05-06 18:09 51.91809 1.17208 24498 ft 419 kts 65°
2026-05-06 18:10 51.93008 1.21525 24876 ft 421 kts 65°
2026-05-06 18:10 51.94215 1.25865 25255 ft 423 kts 65°
2026-05-06 18:10 51.95420 1.30228 25630 ft 425 kts 65°
2026-05-06 18:10 51.96622 1.34627 26000 ft 427 kts 65°
2026-05-06 18:11 51.97817 1.39044 26366 ft 429 kts 66°
2026-05-06 18:11 51.99015 1.43492 26727 ft 431 kts 66°
2026-05-06 18:11 52.00213 1.47959 27082 ft 433 kts 66°
2026-05-06 18:11 52.01416 1.52445 27444 ft 434 kts 66°
2026-05-06 18:12 52.02626 1.56955 27785 ft 436 kts 66°
2026-05-06 18:12 52.03839 1.61486 28135 ft 439 kts 66°
2026-05-06 18:12 52.05056 1.66043 28443 ft 441 kts 66°
2026-05-06 18:12 52.06278 1.70628 28768 ft 443 kts 66°
2026-05-06 18:13 52.07505 1.75239 29105 ft 445 kts 66°
2026-05-06 18:13 52.08735 1.79874 29427 ft 447 kts 66°
2026-05-06 18:13 52.09967 1.84538 29740 ft 450 kts 66°
2026-05-06 18:13 52.11201 1.89217 30049 ft 451 kts 66°
2026-05-06 18:14 52.12443 1.93923 30301 ft 453 kts 66°
2026-05-06 18:14 52.13685 1.98642 30554 ft 455 kts 66°
2026-05-06 18:14 52.14933 2.03389 30792 ft 457 kts 66°
2026-05-06 18:14 52.16181 2.08145 31058 ft 458 kts 66°
2026-05-06 18:15 52.17430 2.12911 31371 ft 457 kts 66°
2026-05-06 18:15 52.18674 2.17668 31719 ft 456 kts 66°
2026-05-06 18:15 52.19914 2.22426 32042 ft 456 kts 66°
2026-05-06 18:15 52.21147 2.27180 32390 ft 455 kts 66°
2026-05-06 18:16 52.22376 2.31929 32710 ft 454 kts 66°
2026-05-06 18:16 52.23601 2.36672 33054 ft 453 kts 66°
2026-05-06 18:16 52.24825 2.41411 33359 ft 453 kts 66°
2026-05-06 18:16 52.26046 2.46143 33719 ft 452 kts 66°
2026-05-06 18:17 52.27252 2.50823 33964 ft 454 kts 66°
2026-05-06 18:17 52.28489 2.55635 34190 ft 454 kts 66°
2026-05-06 18:17 52.29709 2.60400 34399 ft 455 kts 66°
2026-05-06 18:17 52.30865 2.65202 34634 ft 455 kts 72°
2026-05-06 18:18 52.31757 2.70169 34831 ft 456 kts 73°
2026-05-06 18:18 52.32633 2.75143 35059 ft 456 kts 73°
2026-05-06 18:18 52.33498 2.80063 35253 ft 456 kts 74°
2026-05-06 18:18 52.34371 2.85044 35477 ft 456 kts 74°
2026-05-06 18:19 52.35246 2.90032 35679 ft 456 kts 74°
2026-05-06 18:19 52.36117 2.95020 35872 ft 456 kts 74°
2026-05-06 18:19 52.37855 3.05034 35970 ft 457 kts 74°
2026-05-06 18:20 52.39594 3.15061 35967 ft 457 kts 74°
2026-05-06 18:20 52.41326 3.25093 35962 ft 457 kts 74°
2026-05-06 18:21 52.43049 3.35122 35976 ft 457 kts 74°
2026-05-06 18:21 52.44766 3.45163 35973 ft 458 kts 74°
2026-05-06 18:22 52.46475 3.55225 35967 ft 459 kts 75°
2026-05-06 18:22 52.48174 3.65291 35958 ft 459 kts 75°
2026-05-06 18:23 52.49867 3.75370 35964 ft 459 kts 75°
2026-05-06 18:23 52.51563 3.85574 35967 ft 459 kts 75°
2026-05-06 18:24 52.53218 3.95587 35964 ft 459 kts 75°
2026-05-06 18:24 52.54883 4.05681 35963 ft 458 kts 75°
2026-05-06 18:25 52.56539 4.15769 35961 ft 457 kts 75°
2026-05-06 18:25 52.58183 4.25854 35955 ft 457 kts 75°
2026-05-06 18:26 52.59809 4.35938 35958 ft 457 kts 75°
2026-05-06 18:26 52.61436 4.46037 35950 ft 456 kts 75°
2026-05-06 18:27 52.63052 4.56135 35952 ft 456 kts 75°
2026-05-06 18:27 52.64660 4.66244 35944 ft 456 kts 75°
2026-05-06 18:28 52.66258 4.76358 35944 ft 456 kts 76°
2026-05-06 18:28 52.67847 4.86492 35949 ft 457 kts 76°
2026-05-06 18:29 52.69436 4.96640 35953 ft 457 kts 76°
2026-05-06 18:29 52.71024 5.06862 35947 ft 458 kts 76°
2026-05-06 18:30 52.72587 5.16997 35949 ft 458 kts 76°
2026-05-06 18:30 52.74144 5.27189 35950 ft 458 kts 76°
2026-05-06 18:31 52.75684 5.37322 35953 ft 459 kts 76°
2026-05-06 18:31 52.77234 5.47530 35948 ft 459 kts 76°
2026-05-06 18:32 52.78773 5.57744 35947 ft 458 kts 77°
2026-05-06 18:32 52.80298 5.67951 35942 ft 457 kts 77°
2026-05-06 18:33 52.81805 5.78159 35939 ft 458 kts 77°
2026-05-06 18:33 52.83305 5.88373 35936 ft 457 kts 77°
2026-05-06 18:34 52.84831 5.98765 35936 ft 457 kts 77°
2026-05-06 18:34 52.86300 6.08817 35929 ft 457 kts 77°
2026-05-06 18:35 52.87779 6.19033 35929 ft 457 kts 77°
2026-05-06 18:35 52.89244 6.29282 35931 ft 457 kts 77°
2026-05-06 18:36 52.90698 6.39532 35934 ft 457 kts 77°
2026-05-06 18:36 52.92153 6.49782 35928 ft 457 kts 77°
2026-05-06 18:37 52.93361 6.58306 35940 ft 457 kts 77°
2026-05-06 18:37 52.95040 6.70296 35938 ft 457 kts 78°
2026-05-06 18:38 52.96466 6.80565 35938 ft 457 kts 78°
2026-05-06 18:38 52.97884 6.90835 35828 ft 456 kts 78°
2026-05-06 18:39 52.98586 6.95943 35594 ft 452 kts 78°
2026-05-06 18:39 52.99280 7.01016 35336 ft 449 kts 78°
2026-05-06 18:39 52.99963 7.06036 35088 ft 447 kts 78°
2026-05-06 18:40 53.01317 7.16043 34579 ft 440 kts 78°
2026-05-06 18:40 53.01981 7.21000 34342 ft 437 kts 78°
2026-05-06 18:40 53.02651 7.25913 34106 ft 435 kts 76°
2026-05-06 18:40 53.03641 7.30645 33878 ft 434 kts 66°
2026-05-06 18:41 53.05080 7.35025 33596 ft 432 kts 56°
2026-05-06 18:41 53.06869 7.39024 33317 ft 430 kts 55°
2026-05-06 18:41 53.07890 7.41840 33134 ft 427 kts 67°
2026-05-06 18:41 53.08900 7.48155 32768 ft 422 kts 83°
2026-05-06 18:42 53.09188 7.51352 32583 ft 422 kts 83°
2026-05-06 18:42 53.09604 7.56175 32312 ft 420 kts 83°
2026-05-06 18:42 53.10016 7.60973 32039 ft 418 kts 83°
2026-05-06 18:42 53.10428 7.65754 31776 ft 416 kts 83°
2026-05-06 18:43 53.10831 7.70512 31519 ft 414 kts 84°
2026-05-06 18:43 53.11228 7.75242 31260 ft 412 kts 84°
2026-05-06 18:43 53.11623 7.79956 31001 ft 410 kts 84°
2026-05-06 18:43 53.12018 7.84646 30747 ft 408 kts 84°
2026-05-06 18:44 53.12590 7.89283 30160 ft 411 kts 75°
2026-05-06 18:44 53.13443 7.93868 28964 ft 415 kts 73°
2026-05-06 18:44 53.14324 7.98337 28713 ft 398 kts 72°
2026-05-06 18:44 53.15193 8.02669 28366 ft 392 kts 72°
2026-05-06 18:45 53.16054 8.06961 27945 ft 388 kts 72°
2026-05-06 18:45 53.16896 8.11205 27516 ft 384 kts 73°
2026-05-06 18:45 53.17721 8.15426 27093 ft 381 kts 73°
2026-05-06 18:45 53.18530 8.19619 26662 ft 379 kts 72°
2026-05-06 18:46 53.19331 8.23784 26233 ft 376 kts 72°
2026-05-06 18:46 53.20117 8.27929 25820 ft 373 kts 72°
2026-05-06 18:46 53.20882 8.32046 25388 ft 371 kts 72°
2026-05-06 18:46 53.21640 8.36179 24805 ft 375 kts 72°
2026-05-06 18:47 53.22404 8.40358 24207 ft 378 kts 72°
2026-05-06 18:47 53.23176 8.44571 23614 ft 381 kts 72°
2026-05-06 18:47 53.23957 8.48817 22945 ft 384 kts 72°
2026-05-06 18:47 53.24743 8.53088 22253 ft 387 kts 72°
2026-05-06 18:48 53.25530 8.57400 21587 ft 389 kts 72°
2026-05-06 18:48 53.26319 8.61737 20933 ft 391 kts 72°
2026-05-06 18:48 53.27110 8.66088 20300 ft 392 kts 72°
2026-05-06 18:48 53.27903 8.70454 19672 ft 393 kts 72°
2026-05-06 18:49 53.28697 8.74828 19056 ft 394 kts 73°
2026-05-06 18:49 53.29493 8.79208 18450 ft 394 kts 73°
2026-05-06 18:49 53.30285 8.83599 17819 ft 394 kts 73°
2026-05-06 18:49 53.31074 8.87984 17147 ft 394 kts 73°
2026-05-06 18:50 53.31865 8.92376 16488 ft 394 kts 73°
2026-05-06 18:50 53.32651 8.96760 15842 ft 393 kts 72°
2026-05-06 18:50 53.33435 9.01143 15207 ft 392 kts 73°
2026-05-06 18:50 53.34213 9.05508 14593 ft 391 kts 72°
2026-05-06 18:51 53.34976 9.09807 13991 ft 389 kts 72°
2026-05-06 18:51 53.35745 9.14134 13348 ft 387 kts 72°
2026-05-06 18:51 53.36518 9.18490 12676 ft 384 kts 72°
2026-05-06 18:51 53.37272 9.22761 12020 ft 381 kts 72°
2026-05-06 18:52 53.38008 9.26950 11404 ft 378 kts 72°
2026-05-06 18:52 53.38744 9.31142 10970 ft 369 kts 73°
2026-05-06 18:52 53.39455 9.35194 10720 ft 356 kts 73°
2026-05-06 18:52 53.40139 9.39103 10470 ft 344 kts 73°
2026-05-06 18:53 53.40799 9.42887 10218 ft 333 kts 73°
2026-05-06 18:53 53.41433 9.46554 9983 ft 323 kts 73°
2026-05-06 18:53 53.42046 9.50098 9845 ft 310 kts 73°
2026-05-06 18:53 53.42636 9.53504 9713 ft 298 kts 73°
2026-05-06 18:54 53.43204 9.56786 9566 ft 288 kts 73°
2026-05-06 18:54 53.43765 9.60027 8795 ft 291 kts 73°
2026-05-06 18:54 53.44331 9.63283 8014 ft 290 kts 72°
2026-05-06 18:54 53.45225 9.66250 7255 ft 285 kts 50°
2026-05-06 18:55 53.46735 9.68322 6519 ft 282 kts 28°
2026-05-06 18:55 53.48480 9.69820 5739 ft 280 kts 33°
2026-05-06 18:55 53.49862 9.72056 4982 ft 276 kts 52°
2026-05-06 18:55 53.51030 9.74593 4188 ft 273 kts 52°
2026-05-06 18:56 53.52239 9.77040 3414 ft 271 kts 45°
2026-05-06 18:56 53.53816 9.78573 3079 ft 256 kts 15°
2026-05-06 18:56 53.55512 9.78530 3001 ft 240 kts 345°
2026-05-06 18:56 53.56923 9.77191 3004 ft 229 kts 327°
2026-05-06 18:57 53.58174 9.75557 3009 ft 227 kts 324°
2026-05-06 18:57 53.59405 9.73888 3008 ft 227 kts 324°
2026-05-06 18:57 53.60586 9.72111 2998 ft 230 kts 310°
2026-05-06 18:57 53.61189 9.69612 3008 ft 237 kts 276°
2026-05-06 18:58 53.60909 9.66892 3004 ft 239 kts 244°
2026-05-06 18:58 53.60062 9.64480 3017 ft 239 kts 236°
2026-05-06 18:58 53.59122 9.62171 3012 ft 239 kts 231°
2026-05-06 18:58 53.57858 9.60427 3011 ft 237 kts 199°
2026-05-06 18:59 53.56263 9.60072 3011 ft 230 kts 166°
2026-05-06 18:59 53.54737 9.60825 3009 ft 229 kts 155°
2026-05-06 18:59 53.53264 9.61820 3008 ft 227 kts 147°
2026-05-06 18:59 53.52089 9.63495 2836 ft 220 kts 127°
2026-05-06 19:00 53.51123 9.65470 2554 ft 218 kts 124°
2026-05-06 19:00 53.50233 9.67523 2493 ft 216 kts 113°
2026-05-06 19:00 53.49849 9.69875 2513 ft 202 kts 90°
2026-05-06 19:00 53.50063 9.72228 2497 ft 201 kts 68°
2026-05-06 19:01 53.50768 9.74137 2527 ft 189 kts 51°
2026-05-06 19:01 53.51572 9.75741 2542 ft 167 kts 51°
2026-05-06 19:01 53.52274 9.77148 2542 ft 151 kts 51°
2026-05-06 19:01 53.52934 9.78472 2536 ft 147 kts 51°
2026-05-06 19:02 53.53628 9.79867 2543 ft 160 kts 51°
2026-05-06 19:02 53.54344 9.81305 2428 ft 161 kts 51°
2026-05-06 19:02 53.55060 9.82742 2238 ft 160 kts 51°
2026-05-06 19:02 53.55769 9.84166 2031 ft 158 kts 51°
2026-05-06 19:03 53.56450 9.85536 1830 ft 143 kts 51°
2026-05-06 19:03 53.57072 9.86786 1637 ft 137 kts 51°
2026-05-06 19:03 53.57676 9.88002 1445 ft 135 kts 51°
2026-05-06 19:03 53.58275 9.89196 1281 ft 133 kts 50°
2026-05-06 19:04 53.58873 9.90379 1064 ft 132 kts 50°
2026-05-06 19:04 53.59449 9.91565 875 ft 132 kts 50°
2026-05-06 19:04 53.60022 9.92763 713 ft 132 kts 51°
2026-05-06 19:04 53.60621 9.93958 520 ft 133 kts 50°
2026-05-06 19:05 53.61214 9.95156 306 ft 133 kts 50°
2026-05-06 19:05 53.61803 9.96336 160 ft 132 kts 51°
2026-05-06 19:05 53.62371 9.97495 53 ft 116 kts 50°
2026-05-06 19:05 53.62783 9.98309 53 ft 66 kts 50°
2026-05-06 19:06 53.62968 9.98686 48 ft 21 kts 50°
2026-05-06 19:06 53.63091 9.98933 50 ft 31 kts 50°
2026-05-06 19:06 53.63254 9.99268 53 ft 35 kts 50°
2026-05-06 19:06 53.63291 9.99492 51 ft 9 kts 97°
2026-05-06 19:07 53.63278 9.99611 51 ft 12 kts 101°
2026-05-06 19:07 53.63271 9.99679 51 ft 0 kts 100°
2026-05-06 19:09 53.63270 9.99682 51 ft 2 kts 96°
2026-05-06 19:09 53.63276 9.99736 51 ft 8 kts 71°
2026-05-06 19:09 53.63315 9.99839 48 ft 13 kts 50°
2026-05-06 19:10 53.63366 9.99939 51 ft 12 kts 50°
2026-05-06 19:10 53.63419 10.00048 51 ft 8 kts 52°
2026-05-06 19:10 53.63429 10.00141 51 ft 9 kts 109°
2026-05-06 19:10 53.63387 10.00209 51 ft 8 kts 149°
2026-05-06 19:11 53.63340 10.00227 48 ft 6 kts 175°
2026-05-06 19:11 53.63273 10.00236 49 ft 14 kts 175°
2026-05-06 19:11 53.63185 10.00249 51 ft 12 kts 175°
2026-05-06 19:11 53.63127 10.00257 51 ft 4 kts 175°
2026-05-06 19:12 53.63101 10.00258 51 ft 3 kts 179°
2026-05-06 19:12 53.63084 10.00273 51 ft 2 kts 130°
2026-05-06 19:12 53.63075 10.00329 51 ft 7 kts 95°
2026-05-06 19:12 53.63073 10.00385 48 ft 3 kts 91°
2026-05-06 19:13 53.63073 10.00386 51 ft 0 kts 91°